Regional Weather Roundup
Issued by NWS

Home | Current Version | Previous Version | Text Only | Print | Product List | Glossary Off
Versions: 1 2 3 4 5 6 7 8 9 10 11 12 13 14 15 16 17 18 19 20 21 22 23 24 25 26 27 28

000
ASUS45 KGTF 051310
RWRMT
MONTANA HOURLY WEATHER ROUNDUP
NATIONAL WEATHER SERVICE GREAT FALLS MT
700 AM MDT TUE MAY 05 2015

NOTE: "FAIR" INDICATES FEW OR NO CLOUDS BELOW 12000 FEET WITH NO
SIGNIFICANT WEATHER AND/OR OBSTRUCTIONS TO VISIBILITY.

MTZ001>007-043-051400-
WEST OF THE DIVIDE

CITY           SKY/WX    TMP DP  RH WIND       PRES   REMARKS
KALISPELL      PTSUNNY   48  39  71 SW7       29.80F
MISSOULA       MOCLDY    47  38  71 S9        29.87R
BUTTE          CLEAR     36  28  73 S3        29.88R
DEER LODGE       N/A     41  30  65 CALM      29.90R
EUREKA           N/A     45  34  65 CALM      29.81R
HAMILTON         N/A     50  36  57 E9        29.85S
LIBBY            N/A     39  30  70 CALM      29.84R
$$

MTZ008-052>055-051400-
SOUTHWEST MONTANA

CITY           SKY/WX    TMP DP  RH WIND       PRES   REMARKS
BOZEMAN        PTCLDY    41  35  79 E3        29.82F
DILLON         PTCLDY    46  33  60 S12       29.85R
$$

MTZ009-010-012-014-046-048-049-054-051400-
EAST SLOPES AND CENTRAL MONTANA

CITY           SKY/WX    TMP DP  RH WIND       PRES   REMARKS
CUT BANK       MOCLDY    56  35  45 W25G33    29.77S
GREAT FALLS    PTCLDY    49  34  56 W14       29.76S
MALMSTROM AFB  MOCLDY    50  37  61 N5        29.77S
HELENA         PTCLDY    47  30  51 CALM      29.80R
$$

MTZ011-013-016-021-045-047-050-051-051400-
NORTH CENTRAL MONTANA

CITY           SKY/WX    TMP DP  RH WIND       PRES   REMARKS
HAVRE          PTCLDY    42  37  82 NW3       29.74S
LEWISTOWN      CLEAR     46  37  71 E8        29.79F
CHINOOK          N/A     50  43  76 E12G18    29.75R
FORT BENTON      N/A     52  36  54 SW3       29.77F
$$

MTZ017>020-022>042-056>058-061-062-051400-
EASTERN PLAINS

CITY           SKY/WX    TMP DP  RH WIND       PRES   REMARKS
BAKER          SUNNY     46  32  58 SE16      29.93F
BILLINGS       MOCLDY    50  43  77 N3        29.82S
GLASGOW        SUNNY     47  35  63 SE15      29.83R
JORDAN           N/A     49  37  63 SE6       29.82S
LIVINGSTON     PTCLDY    43  36  76 NW10      29.84F
MILES CITY     SUNNY     51  35  54 SE10      29.85S
SIDNEY         SUNNY     48  30  49 CALM      29.93S
WOLF POINT     SUNNY     48  36  63 E8        29.87F
BIG TIMBER       N/A     45  39  81 CALM      29.85S
FORSYTH          N/A     48  39  71 NE5       29.82S
PLENTYWOOD       N/A     48  28  46 SE14      29.91S
POPLAR           N/A     50  34  53 NE6       29.89S
$$

REGIONAL REPORTS...DAKOTAS

CITY           SKY/WX    TMP DP  RH WIND       PRES   REMARKS
WILLISTON      SUNNY     52  28  39 VRB6      29.95S
MINOT          MOSUNNY   56  29  35 SE14G23   30.02F
DICKINSON      SUNNY     47  31  53 SE15      29.96F
BEACH          FAIR      46  30  53 SE16      29.95R
CROSBY         FAIR      50  32  50 S16G22    29.94F
WATFORD CITY   FAIR      54  27  35 SE17      29.93S
BISMARCK       CLOUDY    53  32  44 S16       30.06S
GRAND FORKS    MOSUNNY   49  31  49 S8        30.18R
FARGO          SUNNY     55  28  35 SE10      30.18S
BUFFALO SD       N/A     49  32  52 SE13      29.90F
RAPID CITY     SUNNY     42  36  79 SE9       30.00S
$$

REGIONAL REPORTS...WYOMING/IDAHO/WASHINGTON

CITY           SKY/WX    TMP DP  RH WIND       PRES   REMARKS
GILLETTE       MOSUNNY   45  40  82 S21G31    29.93S
SHERIDAN       SUNNY     44  40  85 CALM      29.87R
BUFFALO WY     SUNNY     45  42  89 CALM      29.90S
CODY           PTCLDY    48  37  66 SW3       29.88S
YELLOWSTONE LA   N/A     29  26  89 CALM      30.03S
IDAHO FALLS    PTCLDY    45  40  82 N8        29.87S
SALMON           N/A     43  34  70 SE5       29.84S
BOISE          CLEAR     53  34  48 NW7       29.82R
SPOKANE        MOCLDY    43  33  68 SW15      29.90R
$$

REGIONAL REPORTS...ALBERTA

CITY           SKY/WX    TMP DP  RH WIND       PRES   REMARKS
EDMONTON       PTCLDY    43  32  65 E9        29.77S
CALGARY        PTCLDY    39  25  56 CALM      29.66S
LETHBRIDGE     MOCLDY    50  30  46 SW9       29.72R
MEDICINE HAT   MOCLDY    48  37  66 SW8       29.71R
$$

REGIONAL REPORTS...SASKATCHEWAN

CITY           SKY/WX    TMP DP  RH WIND       PRES   REMARKS
SWIFT CURRENT  SUNNY     48  41  76 S17G25    29.73F
REGINA         PTSUNNY   48  34  57 SE16G24   29.88F
SASKATOON      MOSUNNY   46  39  76 E16G22    29.84S
$$



USA.gov is the U.S. government's official web portal to all federal, state and local government web resources and services.